Location: Saint-Usage
(47.1052°N, 5.2587°E)
Time: 09:00:28
(UTC+02:00)

Envisat - Pass Details

Date: 06 October 2021
Orbit: 764 x 766 km, 98.2° (Epoch: 23 October)

Event Time Altitude Azimuth Distance (km) Brightness Sun altitude
Rises 05:47:34 0° 25° (NNE) 3,241 6.8 -20.6°
Reaches altitude 10° 05:50:22 10° 40° (NE) 2,310 6.2 -20.1°
Maximum altitude 05:54:21 23° 92° (E) 1,598 5.5 -19.5°
Drops below altitude 10° 05:58:17 10° 143° (SE) 2,296 5.8 -18.8°
Sets 06:01:03 0° 158° (SSE) 3,216 6.3 -18.4°
